METEOR 1-5 DEB, 58396

Orbit data source: Space-Track

METEOR 1-5 DEB, 58396 is space debris in LEO originally from a launch on Tue, 23 Jun 1970 UTC launched from the Plesetsk Missile And Space Complex (PKMTR). Debris objects in space refer to the collection of defunct objects orbiting the Earth. Examples of debris include non-operational satellites, rocket bodies, and fragments generated from explosions, collisions, or faulty payload assembly.

Loading next visibility...
Identifier
58396, 1970-047C
Orbit
LEO
Country
Flag of CISCIS
Related business
Manufacturer
VNIIEM
Mission
Spacecraft
Bus & Motor
Unknown
Mass
Unknown
Launch date (UTC)
1970-06-23 (56 years ago)
Launch vehicle
Unknown
Launch site
Plesetsk Missile And Space Complex (PKMTR)
Object type
Payload
Rocket body
Debris
Shape & HBR
Unknown shape, 0.1 m
Radar Cross Section
Medium (>0.1 m² and <1 m²)

Expand to show TLE details & history
Last TLE update: 3 days ago

TLE from 3 days ago
0 METEOR 1-5 DEB
1 58396U 70047C   26170.12052803  .00001191  00000-0  50860-3 0  9990
2 58396  81.2128 225.9041 0030580  19.6964 340.5388 14.24239055137220
Epoch: 2026-06-19T02:53Z
TLE epoch observation values (Epoch: 2026-06-19T02:53:33.621Z)
Latitude
-0.00002°
Longitude
-84.84005°
Altitude
793.245 km
Speed
7.468 km/s
True Right ascension
15h 03m 36s
True Declination
0° 00' 00"
Sunlit
Object was in full shadow at epoch
Visualization orbit readout
Latitude
Unknown
Longitude
Unknown
Altitude
Unknown
Speed
Unknown
Apparent Right ascension
Unknown
Apparent Declination
Unknown
Sunlit
N/A
Visualization observer readout
Local Sidereal Time
21:24:46
Azimuth
Unknown
Elevation
Unknown
Doppler factor
Unknown
Orbital elements
Apogee altitude
830.185 km
Perigee altitude
786.233 km
Semi-major axis
7,186.346 km
Eccentricity
0.00306
Inclination
81.2128°
RAAN
225.9041°
Arg. of periapsis
19.6964°
True anomaly
340.42163°
Mean anomaly
340.5388°
Eccentric anomaly
340.48026°
Mean motion
3.56271 °/min
Orbital period
101.05 mins
BSTAR
0.0005086
Loading maneuver chart data...
Computing Atmospheric mass density...
Loading historical data...
Loading historical data...
Loading historical data...
Loading historical data...
Loading historical data...
Loading historical data...
Loading historical data...
Other satellites on launch #47 in the year 1970 (1970-06-23 UTC)

Documentation

Showing up to 5 results
|